Regional Weather Roundup
Issued by NWS Albany, NY

Home | Current Version | Previous Version | Graphics & Text | Print | Product List | Glossary Off
Versions: 1 2 3 4 5 6 7 8 9 10 11 12 13 14 15 16 17 18 19 20 21 22 23 24 25 26 27 28 29 30 31 32 33 34 35 36 37 38 39 40 41 42 43 44 45 46 47 48 49 50

963
ASUS41 KALY 292310
RWRALY

NEW YORK STATE HOURLY WEATHER ROUNDUP
NATIONAL WEATHER SERVICE ALBANY NY
700 PM EDT FRI APR 29 2016

NOTE: "FAIR" INDICATES FEW OR NO CLOUDS BELOW 12,000 FEET WITH NO
SIGNIFICANT WEATHER AND/OR NO OBSTRUCTIONS TO VISIBILITY.

NYZ032-033-038>043-046>054-057>066-NYZ062>081-082-084-300000-
EAST


CITY           SKY/WX    TMP DP  RH WIND       PRES   REMARKS
ALBANY         CLOUDY    56  34  43 SW7       30.05F
GLENS FALLS    CLOUDY    59  35  40 SW6       30.03S
POUGHKEEPSIE   CLOUDY    57  32  38 SE6       30.06R
NEWBURGH       CLOUDY    54  36  50 SE9       30.07R
MONTGOMERY     LGT RAIN  52  36  54 SW6       30.06S
WHITE PLAINS   CLOUDY    50  32  50 E7        30.08R
ISLIP          CLOUDY    49  34  56 E9        30.09S
NEW YORK CITY  CLOUDY    55  28  35 VRB7      30.08S
CENTRAL PARK   CLOUDY    52  36  54 NE5       30.11S
$$

NYZ005>009-017-018-044>046-055-056-300000-
CENTRAL


CITY           SKY/WX    TMP DP  RH WIND       PRES   REMARKS
FULTON         CLOUDY    52  45  77 CALM      30.07R
SYRACUSE       CLOUDY    50  42  74 E3        30.07R
ROME           CLOUDY    51  42  71 CALM      30.08R
ELMIRA         RAIN      46  43  89 W6        30.07R FOG
BINGHAMTON     LGT RAIN  43  40  89 S5        30.06R
MONTICELLO     CLOUDY    45  39  81 CALM      30.07R
$$

NYZ026>034-041>043-087-300000-
NORTH


CITY           SKY/WX    TMP DP  RH WIND       PRES   REMARKS
WATERTOWN      CLOUDY    54  24  31 N8        30.06R
FORT DRUM      NOT AVBL
MASSENA        CLOUDY    51  17  26 NE13      30.10S
SARANAC LAKE   CLOUDY    48  19  31 NE10      30.03R
PLATTSBURGH    CLOUDY    51  21  30 N8        30.08S
$$

NYZ001>004-010>016-019>021-085-300000-
WEST


CITY           SKY/WX    TMP DP  RH WIND       PRES   REMARKS
NIAGARA FALLS  PTSUNNY   50  31  48 E3        30.07R
BUFFALO        PTSUNNY   48  31  51 NE8       30.06S
DUNKIRK        LGT RAIN  46  40  79 N5        30.05F
JAMESTOWN      MOSUNNY   43  39  87 N3        30.02R
WELLSVILLE     LGT RAIN  43  42  97 E5        30.04S VSB 1/4
ROCHESTER      CLOUDY    46  39  76 E6        30.08S
PENN YAN       LGT RAIN  47  43  86 SW3       30.07R FOG
$$

             KEY
       WCI = WIND CHILL INDEX
       VSB = VISIBILITY
       HX  = HEAT INDEX
$$




USA.gov is the U.S. government's official web portal to all federal, state and local government web resources and services.